Regional Weather Roundup
Issued by NWS

Home | Current Version | Previous Version | Graphics & Text | Print | Product List | Glossary On
Versions: 1 2 3 4 5 6 7 8 9 10 11 12 13 14 15 16 17 18 19 20 21 22 23 24 25 26 27 28 29 30 31 32 33 34 35 36 37 38 39 40 41 42 43 44 45 46 47 48 49 50
000
ASUS43 KDTX 100101
RWRMI
MICHIGAN HOURLY REGIONAL WEATHER ROUNDUP
NATIONAL WEATHER SERVICE DETROIT/PONTIAC MI
800 PM EST TUE FEB 09 2016

NOTE: "FAIR" INDICATES FEW OR NO CLOUDS BELOW 12,000 FEET WITH NO
SIGNIFICANT WEATHER AND/OR OBSTRUCTION TO VISIBILITY.

MIZ047>049-052>055-059>063-066>070-074>076-081>083-100200-
SOUTHEAST LOWER MICHIGAN

CITY           SKY/WX    TMP DP  RH WIND       PRES   REMARKS
ADRIAN         CLOUDY    26  15  63 NW14G25   29.74R WCI  14
ALMA           CLOUDY    26  19  74 NW13      29.72S WCI  15
ANN ARBOR      CLOUDY    25  18  74 W14       29.70R WCI  13
BAD AXE        LGT SNOW  27  25  93 NW17G26   29.63R WCI  14
DETROIT CITY   LGT SNOW  27  23  85 W12G21    29.68R FOG     WCI  17
DETROIT        LGT SNOW  27  21  78 W16G22    29.71R WCI  15
FLINT          LGT SNOW  27  21  78 W14       29.69R WCI  16
GROSSE ILE     LGT SNOW  27  21  80 W10G18    29.69R WCI  17
HILLSDALE      FLURRIES  23  18  80 NW15G23   29.72S WCI  10
HOWELL         CLOUDY    26  20  79 W13G21    29.69S WCI  14

CITY           SKY/WX    TMP DP  RH WIND       PRES   REMARKS
JACKSON        CLOUDY    24  15  68 W13G24    29.72R WCI  12
LAMBERTVILLE   CLOUDY    27  18  69 W15G23    29.74R WCI  15
LANSING        CLOUDY    25  18  74 W15       29.73R WCI  13
LAPEER         FLURRIES  25  22  88 NW13      29.66R WCI  14
MASON          CLOUDY    24  19  78 W14       29.72R WCI  12
MONROE         LGT SNOW  27  21  79 W14       29.71R WCI  15
MT. CLEMENS    LGT SNOW  27  23  86 W15       29.64R WCI  15
PONTIAC        LGT SNOW  24  21  88 W15       29.66R FOG     WCI  11
PORT HOPE        N/A     28  25  88 NW23G29   29.59R WCI  14
PORT HURON     LGT SNOW  27  23  86 W10       29.64R WCI  17
TRI CITIES     LGT SNOW  27  18  69 NW20G25   29.70R WCI  13
MIDLAND        FLURRIES  25  17  71 W12G17    29.69R WCI  15
TROY           LGT SNOW  28  24  86 W13G21    29.69R WCI  17
SAGINAW HB     LGT SNOW  27  23  86 W12       29.69R WCI  16
$$
MIZ043>046-050>051-056>058-064>065-071>073-077>080-100200-
SOUTHWEST LOWER MICHIGAN

CITY           SKY/WX    TMP DP  RH WIND       PRES   REMARKS
BATTLE CREEK   CLOUDY    23  17  78 NW12      29.77R WCI  12
BENTON HARBOR  LGT SNOW  23  18  81 NW13G25   29.85S WCI  11
BIG RAPIDS     FLURRIES  23  17  78 NW9G20    29.73R WCI  13
COLDWATER      FLURRIES  24  20  85 W13G18    29.77R WCI  12
FREMONT        FLURRIES  22  18  84 NW14G20   29.78R WCI   9
HOLLAND        LGT SNOW  24  18  77 NW7       29.81S WCI  16
GRAND RAPIDS   FLURRIES  24  17  74 NW18      29.77R WCI  10
IONIA          CLOUDY    24  17  75 W16G22    29.73S WCI  11
KALAMAZOO      LGT SNOW  24  17  74 NW16      29.79R WCI  11
LUDINGTON      FLURRIES  21  15  78 N14G20    29.82R WCI   8
MARSHALL       FLURRIES  24  18  77 W12G18    29.74S WCI  13
MOUNT PLEASANT CLOUDY    26  15  63 NW9       29.71R WCI  16
MUSKEGON       FLURRIES  23  15  71 NW15      29.81S WCI  10
SOUTH HAVEN    LGT SNOW  24  19  81 N15       29.83S WCI  11
$$
MIZ016>042-100200-
NORTHERN LOWER MICHIGAN

CITY           SKY/WX    TMP DP  RH WIND       PRES   REMARKS
ALPENA         LGT SNOW  22  17  81 NW13G21   29.65R WCI  10
BEAVER ISLAND  LGT SNOW  19  13  77 N13G21    29.75S WCI   6
BELLAIRE       LGT SNOW  22  19  89 NW7       29.74S WCI  13
CADILLAC       FLURRIES  21  15  78 NW16G22   29.69R WCI   7
CHARLEVOIX     LGT SNOW  22  18  85 NW13G25   29.77R WCI  10
FRANKFORT      LGT SNOW  21  17  84 N13G21    29.80R VSB 1   WCI   9
GAYLORD        LGT SNOW  18  13  80 NW12G18   29.65S WCI   5
GRAYLING       LGT SNOW  20  15  81 NW14G20   29.68R WCI   7
HARBOR SPRINGS LGT SNOW  19  13  79 NW8       29.71F WCI   9
HOUGHTON LAKE  LGT SNOW  22  17  81 NW8       29.67R WCI  12
MANISTEE       CLOUDY    21  12  68 NW16G23   29.80R WCI   7
OSCODA         LGT SNOW  24  21  87 NW12G18   29.64R WCI  13
PELLSTON       LGT SNOW  18  13  80 NW14G23   29.72R WCI   4
ROGERS CITY    LGT SNOW  23  20  87 NW10G21   29.67R WCI  12
TRAVERSE CITY  LGT SNOW  23  17  78 NW14G22   29.75R VSB 1   WCI  11
$$
MIZ007>008-015-100200-
EASTERN UPPER MICHIGAN

CITY           SKY/WX    TMP DP  RH WIND       PRES   REMARKS
KINROSS        CLOUDY    18  16  93 N9        29.69R WCI   6
MACKINAC ISLAN CLOUDY    18  13  81 NW12G22   29.69S WCI   5
NEWBERRY       LGT SNOW  15  11  84 N15G25    29.74R WCI  -1
S. S. MARIE    FLURRIES  16   8  71 N10       29.71R WCI   4
$$
MIZ004>006-011>014-085-100200-
CENTRAL UPPER MICHIGAN

CITY           SKY/WX    TMP DP  RH WIND       PRES   REMARKS
MANISTIQUE     FLURRIES  17  10  75 N21G29    29.76R WCI   0
ESCANABA       CLOUDY    16   7  67 NW17      29.84S WCI   0
MENOMINEE      CLOUDY    14   3  62 NW15G23   29.90R WCI  -1
SAWYER-GWINN   LGT SNOW  10   7  85 N23G32    29.82S WCI -10
$$
MIZ001>003-009>011-084-100200-
WESTERN UPPER MICHIGAN

CITY           SKY/WX    TMP DP  RH WIND       PRES   REMARKS
IRON MOUNTAIN  CLOUDY    11   2  67 NW16      29.88R WCI  -6
HOUGHTON       CLOUDY     9   2  73 NW18G24   29.95S HAZE    WCI -10
COPPER HARBOR    N/A     14  11  87 NE25G39   29.97R WCI  -5
IRONWOOD       CLOUDY    10   5  79 N13G23    29.98S WCI  -5
$$

ABBREVIATIONS USED IN REMARKS
   TC - TEMPERATURE IN CELSIUS
  WCI - WIND CHILL INDEX
   HX - HEAT INDEX
  VSB - VISIBILITY




USA.gov is the U.S. government's official web portal to all federal, state and local government web resources and services.